This is the latest recevied weather packets stored in our database for station/object KB4MOX. If no packets are shown the sender has not sent any weather packets the latest 10 day(s).
| Time | Temp. | Humidity | Pressure | Rain* | Wind** | Luminosity | Snow |
|---|---|---|---|---|---|---|---|
| 1778066338 | 16.11° C | 87% | 1014.7 hPa | 0 mm | - | 27 W/m² | - |
| 1778066036 | 15.56° C | 87% | 1014.8 hPa | 0 mm | - | 23 W/m² | - |
| 1778065733 | 15.56° C | 87% | 1014.5 hPa | 0 mm | - | 18 W/m² | - |
| 1778065430 | 15.56° C | 87% | 1014.5 hPa | 0 mm | - | 15 W/m² | - |
| 1778065127 | 15.56° C | 87% | 1014.5 hPa | 0 mm | - | 14 W/m² | - |
| 1778064823 | 15.56° C | 87% | 1014.2 hPa | 0 mm | - | 9 W/m² | - |
| 1778064521 | 15.56° C | 87% | 1014.5 hPa | 0 mm | - | 5 W/m² | - |
| 1778064218 | 15.56° C | 88% | 1014.3 hPa | 0 mm | - | 3 W/m² | - |
| 1778063916 | 15.56° C | 88% | 1014.5 hPa | 0 mm | - | 2 W/m² | - |
| 1778063613 | 15.56° C | 88% | 1014.4 hPa | 0 mm | - | 1 W/m² | - |
| 1778063310 | 15.56° C | 88% | 1014.4 hPa | 0 mm | - | 0 W/m² | - |
| 1778063008 | 15.56° C | 88% | 1014.5 hPa | 0 mm | - | 0 W/m² | - |
| 1778062706 | 15.56° C | 88% | 1014.4 hPa | 0 mm | - | 0 W/m² | - |
| 1778062401 | 15.56° C | 88% | 1014.4 hPa | 0 mm | - | 0 W/m² | - |
| 1778062100 | 15.56° C | 87% | 1014.3 hPa | 0 mm | - | 0 W/m² | - |
| 1778061798 | 15.56° C | 87% | 1014.2 hPa | 0 mm | - | 0 W/m² | - |
| 1778061496 | 15.56° C | 87% | 1014.2 hPa | 0 mm | - | 0 W/m² | - |
| 1778061192 | 15.56° C | 86% | 1014.2 hPa | 0 mm | - | 0 W/m² | - |
| 1778060889 | 15.56° C | 86% | 1014.2 hPa | 0 mm | - | 0 W/m² | - |
| 1778060588 | 15.56° C | 86% | 1014.1 hPa | 0 mm | - | 0 W/m² | - |
| 1778060285 | 16.11° C | 85% | 1014 hPa | 0 mm | - | 0 W/m² | - |
| 1778059982 | 16.11° C | 85% | 1014.2 hPa | 0 mm | - | 0 W/m² | - |
| 1778059680 | 16.11° C | 85% | 1014.4 hPa | 0 mm | - | 0 W/m² | - |
| 1778059378 | 16.11° C | 85% | 1014.4 hPa | 0 mm | - | 0 W/m² | - |
| 1778059075 | 16.11° C | 85% | 1014.3 hPa | 0 mm | - | 0 W/m² | - |
* Rain latest hour (hover to see other rain measurements)
** Current wind speed in m/s (hover to see current wind gust speed)